Location: Babice
(50.3480°N, 22.9363°E)
Time: 12:40:59
(UTC+00:00)

CZ-2D R/B - Pass Details

Date: 14 July 2020
Orbit: 792 x 844 km, 98.7° (Epoch: 07 August)

Event Time Altitude Azimuth Distance (km) Brightness Sun altitude
Rises 00:37:14 0° 13° (NNE) 3,344 6.9 -13.1°
Reaches altitude 10° 00:39:35 10° 11° (N) 2,416 5.8 -12.9°
Maximum altitude 00:44:53 68° 289° (WNW) 886 2.3 -12.4°
Enters shadow 00:49:08 17° 210° (SSW) 2,007 3.5 -12.1°
